Time,TemperatureF,DewpointF,PressureIn,WindDirection,WindDirectionDegrees,WindSpeedMPH,WindSpeedGustMPH,Humidity,HourlyPrecipIn,Conditions,Clouds,dailyrainin,SolarRadiationWatts/m^2,SoftwareType,DateUTC
2013-02-03 00:03:00,3.7,-1.1,29.96,SW,236,1.0,5.0,80,0.00,,---,0.00,0.00,VWS V14.01,2013-02-03 06:03:00,
2013-02-03 00:08:00,3.7,-0.8,29.96,SW,231,4.0,4.0,81,0.00,,---,0.00,0.00,VWS V14.01,2013-02-03 06:08:00,
2013-02-03 00:13:00,3.7,-0.8,29.96,SW,219,1.0,5.0,81,0.00,,---,0.00,0.00,VWS V14.01,2013-02-03 06:13:00,
2013-02-03 00:18:00,3.7,-0.8,29.95,SSW,210,3.0,5.0,81,0.00,,---,0.00,0.00,VWS V14.01,2013-02-03 06:18:00,
2013-02-03 00:23:00,3.7,-0.8,29.95,SSW,205,0.0,5.0,81,0.00,,---,0.00,0.00,VWS V14.01,2013-02-03 06:23:00,
2013-02-03 00:28:00,3.7,-0.6,29.95,South,189,0.0,5.0,82,0.00,,---,0.00,0.00,VWS V14.01,2013-02-03 06:28:00,
2013-02-03 00:33:00,3.7,-0.6,29.95,South,190,1.0,1.0,82,0.00,,---,0.00,0.00,VWS V14.01,2013-02-03 06:33:00,
2013-02-03 00:38:00,3.7,-0.6,29.95,SW,217,4.0,4.0,82,0.00,,---,0.00,0.00,VWS V14.01,2013-02-03 06:38:00,
2013-02-03 00:43:00,3.6,-0.6,29.95,SSW,200,0.0,4.0,82,0.00,,---,0.00,0.00,VWS V14.01,2013-02-03 06:43:00,
2013-02-03 00:48:00,3.6,-0.6,29.94,SSW,199,1.0,4.0,82,0.00,,---,0.00,0.00,VWS V14.01,2013-02-03 06:48:00,
2013-02-03 00:53:00,3.6,-0.4,29.94,SW,221,2.0,4.0,83,0.00,,---,0.00,0.00,VWS V14.01,2013-02-03 06:53:00,
2013-02-03 00:58:00,3.6,-0.4,29.94,SW,217,2.0,4.0,83,0.00,,---,0.00,0.00,VWS V14.01,2013-02-03 06:58:00,
2013-02-03 01:03:00,3.6,-0.4,29.93,SSE,160,1.0,4.0,83,0.00,,---,0.00,0.00,VWS V14.01,2013-02-03 07:03:00,
2013-02-03 01:08:00,3.6,-0.4,29.93,SSE,161,0.0,4.0,83,0.00,,---,0.00,0.00,VWS V14.01,2013-02-03 07:08:00,
2013-02-03 01:13:00,3.5,-0.5,29.93,SSE,162,2.0,4.0,83,0.00,,---,0.00,0.00,VWS V14.01,2013-02-03 07:13:00,
2013-02-03 01:18:00,3.6,-0.4,29.93,WSW,245,1.0,4.0,83,0.00,,---,0.00,0.00,VWS V14.01,2013-02-03 07:18:00,
2013-02-03 01:23:00,3.6,-0.4,29.93,SW,230,0.0,4.0,83,0.00,,---,0.00,0.00,VWS V14.01,2013-02-03 07:23:00,
2013-02-03 01:28:00,3.6,-0.1,29.93,SW,227,4.0,4.0,84,0.00,,---,0.00,0.00,VWS V14.01,2013-02-03 07:28:00,
2013-02-03 01:33:00,3.6,-0.1,29.93,SW,218,0.0,2.0,84,0.00,,---,0.00,0.00,VWS V14.01,2013-02-03 07:33:00,
2013-02-03 01:38:00,3.6,-0.1,29.93,SW,219,2.0,3.0,84,0.00,,---,0.00,0.00,VWS V14.01,2013-02-03 07:38:00,
2013-02-03 01:43:00,3.6,-0.1,29.93,SW,219,0.0,3.0,84,0.00,,---,0.00,0.00,VWS V14.01,2013-02-03 07:43:00,
2013-02-03 01:48:00,3.6,-0.1,29.92,SW,219,0.0,3.0,84,0.00,,---,0.00,0.00,VWS V14.01,2013-02-03 07:48:00,
2013-02-03 01:53:00,3.6,-0.1,29.92,SW,219,0.0,3.0,84,0.00,,---,0.00,0.00,VWS V14.01,2013-02-03 07:53:00,
2013-02-03 01:58:00,3.6,-0.1,29.92,SW,219,0.0,3.0,84,0.00,,---,0.00,0.00,VWS V14.01,2013-02-03 07:58:00,
2013-02-03 02:03:00,3.6,-0.1,29.91,SW,219,0.0,0.0,84,0.00,,---,0.00,0.00,VWS V14.01,2013-02-03 08:03:00,
2013-02-03 02:08:00,3.8,0.1,29.91,WSW,244,2.0,6.0,84,0.00,,---,0.00,0.00,VWS V14.01,2013-02-03 08:08:00,
2013-02-03 02:13:00,3.8,0.1,29.91,WSW,254,4.0,8.0,84,0.00,,---,0.00,0.00,VWS V14.01,2013-02-03 08:13:00,
2013-02-03 02:18:00,3.8,0.3,29.91,WSW,244,5.0,9.0,85,0.00,,---,0.00,0.00,VWS V14.01,2013-02-03 08:18:00,
2013-02-03 02:23:00,3.9,0.4,29.91,WSW,249,1.0,9.0,85,0.00,,---,0.00,0.00,VWS V14.01,2013-02-03 08:23:00,
2013-02-03 02:28:00,3.9,0.4,29.91,SW,236,9.0,9.0,85,0.00,,---,0.00,0.00,VWS V14.01,2013-02-03 08:28:00,
2013-02-03 02:33:00,3.9,0.4,29.91,WSW,248,4.0,9.0,85,0.00,,---,0.00,0.00,VWS V14.01,2013-02-03 08:33:00,
2013-02-03 02:38:00,4.0,0.5,29.91,SW,236,1.0,9.0,85,0.00,,---,0.00,0.00,VWS V14.01,2013-02-03 08:38:00,
2013-02-03 02:43:00,4.0,0.5,29.91,WSW,241,3.0,9.0,85,0.00,,---,0.00,0.00,VWS V14.01,2013-02-03 08:43:00,
2013-02-03 02:48:00,4.0,0.5,29.91,WSW,254,3.0,9.0,85,0.00,,---,0.00,0.00,VWS V14.01,2013-02-03 08:48:00,
2013-02-03 02:53:00,4.0,0.5,29.91,WSW,252,2.0,9.0,85,0.00,,---,0.00,0.00,VWS V14.01,2013-02-03 08:53:00,
2013-02-03 02:58:00,4.0,0.5,29.91,SW,236,3.0,9.0,85,0.00,,---,0.00,0.00,VWS V14.01,2013-02-03 08:58:00,
2013-02-03 03:03:00,4.1,0.6,29.90,WSW,250,1.0,10.0,85,0.00,,---,0.00,0.00,VWS V14.01,2013-02-03 09:03:00,
2013-02-03 03:08:00,4.1,0.6,29.90,SW,227,2.0,10.0,85,0.00,,---,0.00,0.00,VWS V14.01,2013-02-03 09:08:00,
2013-02-03 03:13:00,4.1,0.6,29.90,WSW,245,6.0,10.0,85,0.00,,---,0.00,0.00,VWS V14.01,2013-02-03 09:13:00,
2013-02-03 03:18:00,4.1,0.6,29.90,WSW,252,3.0,10.0,85,0.00,,---,0.00,0.00,VWS V14.01,2013-02-03 09:18:00,
2013-02-03 03:23:00,4.2,0.7,29.90,WSW,238,5.0,12.0,85,0.00,,---,0.00,0.00,VWS V14.01,2013-02-03 09:23:00,
2013-02-03 03:28:00,4.2,0.7,29.90,WSW,252,3.0,12.0,85,0.00,,---,0.00,0.00,VWS V14.01,2013-02-03 09:28:00,
2013-02-03 03:33:00,4.2,0.7,29.89,WNW,284,1.0,9.0,85,0.00,,---,0.00,0.00,VWS V14.01,2013-02-03 09:33:00,
2013-02-03 03:38:00,4.2,0.7,29.89,West,261,8.0,10.0,85,0.00,,---,0.00,0.00,VWS V14.01,2013-02-03 09:38:00,
2013-02-03 03:43:00,4.2,0.7,29.89,WNW,290,1.0,10.0,85,0.00,,---,0.00,0.00,VWS V14.01,2013-02-03 09:43:00,
2013-02-03 03:48:00,4.3,0.8,29.89,West,276,6.0,10.0,85,0.00,,---,0.00,0.00,VWS V14.01,2013-02-03 09:48:00,
2013-02-03 03:53:00,4.3,1.0,29.89,WSW,250,3.0,10.0,86,0.00,,---,0.00,0.00,VWS V14.01,2013-02-03 09:53:00,
2013-02-03 03:58:00,4.3,1.0,29.89,WSW,238,4.0,10.0,86,0.00,,---,0.00,0.00,VWS V14.01,2013-02-03 09:58:00,
2013-02-03 04:03:00,4.3,1.0,29.89,WSW,244,4.0,9.0,86,0.00,,---,0.00,0.00,VWS V14.01,2013-02-03 10:03:00,
2013-02-03 04:08:00,4.4,1.1,29.89,WSW,239,3.0,9.0,86,0.00,,---,0.00,0.00,VWS V14.01,2013-02-03 10:08:00,
2013-02-03 04:13:00,4.3,1.0,29.89,SW,230,2.0,9.0,86,0.00,,---,0.00,0.00,VWS V14.01,2013-02-03 10:13:00,
2013-02-03 04:18:00,4.4,1.1,29.89,WSW,252,6.0,11.0,86,0.00,,---,0.00,0.00,VWS V14.01,2013-02-03 10:18:00,
2013-02-03 04:23:00,4.4,1.1,29.89,WSW,248,3.0,11.0,86,0.00,,---,0.00,0.00,VWS V14.01,2013-02-03 10:23:00,
2013-02-03 04:28:00,4.4,1.1,29.89,SW,214,5.0,11.0,86,0.00,,---,0.00,0.00,VWS V14.01,2013-02-03 10:28:00,
2013-02-03 04:33:00,4.4,1.1,29.90,West,261,7.0,10.0,86,0.00,,---,0.00,0.00,VWS V14.01,2013-02-03 10:33:00,
2013-02-03 04:38:00,4.4,1.1,29.90,WSW,249,6.0,10.0,86,0.00,,---,0.00,0.00,VWS V14.01,2013-02-03 10:38:00,
2013-02-03 04:43:00,4.4,1.1,29.90,West,261,5.0,10.0,86,0.00,,---,0.00,0.00,VWS V14.01,2013-02-03 10:43:00,
2013-02-03 04:48:00,4.4,1.1,29.90,WSW,237,7.0,10.0,86,0.00,,---,0.00,0.00,VWS V14.01,2013-02-03 10:48:00,
2013-02-03 04:53:00,4.4,1.1,29.90,WSW,248,7.0,10.0,86,0.00,,---,0.00,0.00,VWS V14.01,2013-02-03 10:53:00,
2013-02-03 04:57:00,4.4,1.1,29.90,WSW,250,3.0,12.0,86,0.00,,---,0.00,0.00,VWS V14.01,2013-02-03 10:57:00,
2013-02-03 05:02:00,4.4,1.1,29.89,West,281,1.0,7.0,86,0.00,,---,0.00,0.00,VWS V14.01,2013-02-03 11:02:00,
2013-02-03 05:07:00,4.4,1.1,29.89,WSW,246,1.0,7.0,86,0.00,,---,0.00,0.00,VWS V14.01,2013-02-03 11:07:00,
2013-02-03 05:12:00,4.4,1.1,29.89,WSW,246,1.0,8.0,86,0.00,,---,0.00,0.00,VWS V14.01,2013-02-03 11:12:00,
2013-02-03 05:17:00,4.4,1.1,29.89,WNW,296,4.0,11.0,86,0.00,,---,0.00,0.00,VWS V14.01,2013-02-03 11:17:00,
2013-02-03 05:22:00,4.4,1.1,29.89,WSW,240,2.0,11.0,86,0.00,,---,0.00,0.00,VWS V14.01,2013-02-03 11:22:00,
2013-02-03 05:27:00,4.5,1.2,29.89,SW,236,1.0,11.0,86,0.00,,---,0.00,0.00,VWS V14.01,2013-02-03 11:27:00,
2013-02-03 05:32:00,4.5,1.2,29.89,West,279,1.0,7.0,86,0.00,,---,0.00,0.00,VWS V14.01,2013-02-03 11:32:00,
2013-02-03 05:37:00,4.6,1.3,29.89,WSW,244,6.0,13.0,86,0.00,,---,0.00,0.00,VWS V14.01,2013-02-03 11:37:00,
2013-02-03 05:43:00,4.6,1.3,29.89,West,263,4.0,13.0,86,0.00,,---,0.00,0.00,VWS V14.01,2013-02-03 11:43:00,
2013-02-03 05:48:00,4.6,1.3,29.90,West,266,4.0,13.0,86,0.00,,---,0.00,0.00,VWS V14.01,2013-02-03 11:48:00,
2013-02-03 05:53:00,4.6,1.3,29.90,West,279,10.0,14.0,86,0.00,,---,0.00,0.00,VWS V14.01,2013-02-03 11:53:00,
2013-02-03 05:58:00,4.6,1.3,29.90,WSW,254,7.0,14.0,86,0.00,,---,0.00,0.00,VWS V14.01,2013-02-03 11:58:00,
2013-02-03 06:03:00,4.6,1.3,29.89,West,275,6.0,10.0,86,0.00,,---,0.00,0.00,VWS V14.01,2013-02-03 12:03:00,
2013-02-03 06:08:00,4.6,1.3,29.89,WSW,243,6.0,12.0,86,0.00,,---,0.00,0.00,VWS V14.01,2013-02-03 12:08:00,
2013-02-03 06:13:00,4.6,1.3,29.89,WNW,287,3.0,12.0,86,0.00,,---,0.00,0.00,VWS V14.01,2013-02-03 12:13:00,
2013-02-03 06:18:00,4.7,1.4,29.90,WSW,253,4.0,12.0,86,0.00,,---,0.00,0.00,VWS V14.01,2013-02-03 12:18:00,
2013-02-03 06:23:00,4.7,1.4,29.90,West,279,10.0,12.0,86,0.00,,---,0.00,0.00,VWS V14.01,2013-02-03 12:23:00,
2013-02-03 06:28:00,4.7,1.7,29.90,West,261,5.0,14.0,87,0.00,,---,0.00,0.00,VWS V14.01,2013-02-03 12:28:00,
2013-02-03 06:33:00,4.7,1.4,29.90,WSW,247,3.0,7.0,86,0.00,,---,0.00,0.00,VWS V14.01,2013-02-03 12:33:00,
2013-02-03 06:38:00,4.8,1.5,29.90,West,271,5.0,15.0,86,0.00,,---,0.00,0.00,VWS V14.01,2013-02-03 12:38:00,
2013-02-03 06:43:00,4.9,1.9,29.90,WSW,245,6.0,15.0,87,0.00,,---,0.00,0.00,VWS V14.01,2013-02-03 12:43:00,
2013-02-03 06:47:00,4.9,1.9,29.90,SW,236,6.0,15.0,87,0.00,,---,0.00,0.00,VWS V14.01,2013-02-03 12:47:00,
2013-02-03 06:52:00,5.0,2.0,29.90,West,279,2.0,15.0,87,0.00,,---,0.00,0.00,VWS V14.01,2013-02-03 12:52:00,
2013-02-03 06:57:00,5.0,2.0,29.90,West,260,7.0,15.0,87,0.00,,---,0.00,0.00,VWS V14.01,2013-02-03 12:57:00,
2013-02-03 07:03:00,5.1,2.1,29.91,WNW,284,4.0,8.0,87,0.00,,---,0.00,0.00,VWS V14.01,2013-02-03 13:03:00,
2013-02-03 07:08:00,5.1,2.1,29.91,WNW,289,4.0,9.0,87,0.00,,---,0.00,0.00,VWS V14.01,2013-02-03 13:08:00,
2013-02-03 07:13:00,5.2,2.2,29.91,West,259,8.0,9.0,87,0.00,,---,0.00,0.00,VWS V14.01,2013-02-03 13:13:00,
2013-02-03 07:18:00,5.2,2.2,29.91,West,271,3.0,10.0,87,0.00,,---,0.00,0.00,VWS V14.01,2013-02-03 13:18:00,
2013-02-03 07:23:00,5.2,2.2,29.91,West,265,7.0,10.0,87,0.00,,---,0.00,0.00,VWS V14.01,2013-02-03 13:23:00,
2013-02-03 07:28:00,5.3,2.3,29.91,West,266,6.0,14.0,87,0.00,,---,0.00,0.00,VWS V14.01,2013-02-03 13:28:00,
2013-02-03 07:32:00,5.4,2.4,29.91,WNW,290,6.0,10.0,87,0.00,,---,0.00,0.00,VWS V14.01,2013-02-03 13:32:00,
2013-02-03 07:37:00,5.5,2.5,29.91,West,263,7.0,12.0,87,0.00,,---,0.00,5.00,VWS V14.01,2013-02-03 13:37:00,
2013-02-03 07:43:00,5.6,2.6,29.91,West,263,7.0,17.0,87,0.00,,---,0.00,7.00,VWS V14.01,2013-02-03 13:43:00,
2013-02-03 07:48:00,5.6,2.6,29.92,West,275,5.0,17.0,87,0.00,,---,0.00,9.00,VWS V14.01,2013-02-03 13:48:00,
2013-02-03 07:53:00,5.7,2.9,29.92,WNW,293,6.0,17.0,88,0.00,,---,0.00,12.00,VWS V14.01,2013-02-03 13:53:00,
2013-02-03 07:58:00,5.7,2.9,29.92,West,269,2.0,17.0,88,0.00,,---,0.00,16.00,VWS V14.01,2013-02-03 13:58:00,
2013-02-03 08:03:00,5.8,3.0,29.92,WSW,248,4.0,7.0,88,0.00,,---,0.00,14.00,VWS V14.01,2013-02-03 14:03:00,
2013-02-03 08:08:00,5.8,3.0,29.92,West,275,4.0,14.0,88,0.00,,---,0.00,14.00,VWS V14.01,2013-02-03 14:08:00,
2013-02-03 08:13:00,5.9,3.1,29.92,West,279,4.0,14.0,88,0.00,,---,0.00,18.00,VWS V14.01,2013-02-03 14:13:00,
2013-02-03 08:18:00,6.0,3.2,29.92,WNW,290,6.0,14.0,88,0.00,,---,0.00,21.00,VWS V14.01,2013-02-03 14:18:00,
2013-02-03 08:23:00,6.0,3.0,29.92,NW,325,7.0,14.0,87,0.00,,---,0.00,23.00,VWS V14.01,2013-02-03 14:23:00,
2013-02-03 08:28:00,6.0,3.0,29.92,West,276,7.0,14.0,87,0.00,,---,0.00,26.00,VWS V14.01,2013-02-03 14:28:00,
2013-02-03 08:33:00,6.1,3.1,29.92,West,269,5.0,8.0,87,0.00,,---,0.00,30.00,VWS V14.01,2013-02-03 14:33:00,
2013-02-03 08:38:00,6.1,3.1,29.92,WNW,294,7.0,9.0,87,0.00,,---,0.00,30.00,VWS V14.01,2013-02-03 14:38:00,
2013-02-03 08:43:00,6.1,3.1,29.92,WNW,287,5.0,10.0,87,0.00,,---,0.00,35.00,VWS V14.01,2013-02-03 14:43:00,
2013-02-03 08:48:00,6.2,3.2,29.93,WNW,291,5.0,10.0,87,0.00,,---,0.00,46.00,VWS V14.01,2013-02-03 14:48:00,
2013-02-03 08:53:00,6.1,3.1,29.93,WNW,286,5.0,13.0,87,0.00,,---,0.00,51.00,VWS V14.01,2013-02-03 14:53:00,
2013-02-03 08:58:00,6.1,3.1,29.93,West,263,4.0,13.0,87,0.00,,---,0.00,58.00,VWS V14.01,2013-02-03 14:58:00,
2013-02-03 09:02:00,6.1,3.1,29.93,WNW,291,5.0,10.0,87,0.00,,---,0.00,60.00,VWS V14.01,2013-02-03 15:02:00,
2013-02-03 09:07:00,6.1,3.1,29.93,WNW,300,8.0,10.0,87,0.00,,---,0.00,69.00,VWS V14.01,2013-02-03 15:07:00,
2013-02-03 09:12:00,6.1,3.1,29.93,WNW,289,4.0,15.0,87,0.00,,---,0.00,72.00,VWS V14.01,2013-02-03 15:12:00,
2013-02-03 09:17:00,6.0,2.7,29.94,West,267,5.0,15.0,86,0.00,,---,0.00,74.00,VWS V14.01,2013-02-03 15:17:00,
2013-02-03 09:22:00,5.9,2.6,29.94,WNW,303,6.0,15.0,86,0.00,,---,0.00,88.00,VWS V14.01,2013-02-03 15:22:00,
2013-02-03 09:27:00,5.8,2.5,29.94,West,260,2.0,15.0,86,0.00,,---,0.00,97.00,VWS V14.01,2013-02-03 15:27:00,
2013-02-03 09:32:00,5.9,2.6,29.94,WNW,296,4.0,6.0,86,0.00,,---,0.00,95.00,VWS V14.01,2013-02-03 15:32:00,
2013-02-03 09:37:00,5.9,2.6,29.94,WNW,284,3.0,13.0,86,0.00,,---,0.00,102.00,VWS V14.01,2013-02-03 15:37:00,
2013-02-03 09:42:00,6.0,2.7,29.94,WSW,245,6.0,13.0,86,0.00,,---,0.00,100.00,VWS V14.01,2013-02-03 15:42:00,
2013-02-03 09:47:00,6.0,2.7,29.95,West,263,3.0,13.0,86,0.00,,---,0.00,109.00,VWS V14.01,2013-02-03 15:47:00,
2013-02-03 09:52:00,6.1,2.8,29.95,WNW,292,5.0,13.0,86,0.00,,---,0.00,120.00,VWS V14.01,2013-02-03 15:52:00,
2013-02-03 09:57:00,6.0,2.7,29.95,WSW,239,5.0,13.0,86,0.00,,---,0.00,121.00,VWS V14.01,2013-02-03 15:57:00,
2013-02-03 10:02:00,5.9,2.4,29.95,WNW,300,9.0,15.0,85,0.00,,---,0.00,151.00,VWS V14.01,2013-02-03 16:02:00,
2013-02-03 10:07:00,5.8,2.3,29.95,NW,306,6.0,15.0,85,0.00,,---,0.00,156.00,VWS V14.01,2013-02-03 16:07:00,
2013-02-03 10:12:00,5.8,2.3,29.95,WNW,294,7.0,15.0,85,0.00,,---,0.00,144.00,VWS V14.01,2013-02-03 16:12:00,
2013-02-03 10:17:00,5.8,2.3,29.95,NW,311,6.0,15.0,85,0.00,,---,0.00,155.00,VWS V14.01,2013-02-03 16:17:00,
2013-02-03 10:22:00,5.8,2.3,29.95,West,280,4.0,15.0,85,0.00,,---,0.00,158.00,VWS V14.01,2013-02-03 16:22:00,
2013-02-03 10:27:00,5.8,2.3,29.95,WNW,292,5.0,15.0,85,0.00,,---,0.00,200.00,VWS V14.01,2013-02-03 16:27:00,
2013-02-03 10:32:00,5.8,2.3,29.96,WNW,292,5.0,7.0,85,0.00,,---,0.00,172.00,VWS V14.01,2013-02-03 16:32:00,
2013-02-03 10:37:00,5.9,2.4,29.96,West,261,8.0,10.0,85,0.00,,---,0.00,171.00,VWS V14.01,2013-02-03 16:37:00,
2013-02-03 10:42:00,6.0,2.5,29.96,WNW,289,2.0,10.0,85,0.00,,---,0.00,172.00,VWS V14.01,2013-02-03 16:42:00,
2013-02-03 10:47:00,6.1,2.6,29.96,WNW,292,4.0,13.0,85,0.00,,---,0.00,167.00,VWS V14.01,2013-02-03 16:47:00,
2013-02-03 10:52:00,6.1,2.6,29.96,WNW,282,5.0,13.0,85,0.00,,---,0.00,165.00,VWS V14.01,2013-02-03 16:52:00,
2013-02-03 10:57:00,6.1,2.3,29.96,WNW,286,3.0,13.0,84,0.00,,---,0.00,181.00,VWS V14.01,2013-02-03 16:57:00,
2013-02-03 11:02:00,6.0,2.2,29.97,West,275,3.0,5.0,84,0.00,,---,0.00,160.00,VWS V14.01,2013-02-03 17:02:00,
2013-02-03 11:07:00,6.1,2.3,29.97,West,278,7.0,8.0,84,0.00,,---,0.00,148.00,VWS V14.01,2013-02-03 17:07:00,
2013-02-03 11:12:00,6.1,2.3,29.97,WNW,294,3.0,8.0,84,0.00,,---,0.00,167.00,VWS V14.01,2013-02-03 17:12:00,
2013-02-03 11:17:00,6.0,2.2,29.97,WSW,241,6.0,10.0,84,0.00,,---,0.00,176.00,VWS V14.01,2013-02-03 17:17:00,
2013-02-03 11:22:00,6.0,2.2,29.97,West,261,8.0,10.0,84,0.00,,---,0.00,183.00,VWS V14.01,2013-02-03 17:22:00,
2013-02-03 11:27:00,6.0,2.2,29.97,WSW,257,2.0,11.0,84,0.00,,---,0.00,169.00,VWS V14.01,2013-02-03 17:27:00,
2013-02-03 11:32:00,6.1,2.3,29.97,WSW,252,3.0,4.0,84,0.00,,---,0.00,162.00,VWS V14.01,2013-02-03 17:32:00,
2013-02-03 11:37:00,6.1,2.3,29.97,NW,306,8.0,10.0,84,0.00,,---,0.00,163.00,VWS V14.01,2013-02-03 17:37:00,
2013-02-03 11:42:00,6.1,2.3,29.97,WSW,257,4.0,10.0,84,0.00,,---,0.00,211.00,VWS V14.01,2013-02-03 17:42:00,
2013-02-03 11:47:00,6.1,2.3,29.97,West,267,3.0,12.0,84,0.00,,---,0.00,234.00,VWS V14.01,2013-02-03 17:47:00,
2013-02-03 11:52:00,6.1,2.3,29.97,WNW,301,6.0,12.0,84,0.00,,---,0.00,209.00,VWS V14.01,2013-02-03 17:52:00,
2013-02-03 11:57:00,6.0,2.2,29.97,West,273,4.0,12.0,84,0.00,,---,0.00,209.00,VWS V14.01,2013-02-03 17:57:00,
2013-02-03 12:02:00,6.0,2.2,29.97,SW,229,5.0,9.0,84,0.00,,---,0.00,204.00,VWS V14.01,2013-02-03 18:02:00,
2013-02-03 12:07:00,5.9,1.9,29.97,WNW,292,4.0,13.0,83,0.00,,---,0.00,223.00,VWS V14.01,2013-02-03 18:07:00,
2013-02-03 12:12:00,5.9,1.9,29.97,WSW,246,4.0,13.0,83,0.00,,---,0.00,267.00,VWS V14.01,2013-02-03 18:12:00,
2013-02-03 12:17:00,6.1,2.3,29.97,NW,313,4.0,13.0,84,0.00,,---,0.00,265.00,VWS V14.01,2013-02-03 18:17:00,
2013-02-03 12:22:00,6.2,2.2,29.97,WSW,247,11.0,17.0,83,0.00,,---,0.00,327.00,VWS V14.01,2013-02-03 18:22:00,
2013-02-03 12:27:00,6.4,2.3,29.97,West,281,4.0,17.0,83,0.00,,---,0.00,325.00,VWS V14.01,2013-02-03 18:27:00,
2013-02-03 12:32:00,6.5,2.5,29.97,West,276,4.0,6.0,83,0.00,,---,0.00,301.00,VWS V14.01,2013-02-03 18:32:00,
2013-02-03 12:37:00,6.5,2.2,29.97,WNW,294,5.0,12.0,82,0.00,,---,0.00,255.00,VWS V14.01,2013-02-03 18:37:00,
2013-02-03 12:42:00,6.6,2.3,29.97,WNW,282,5.0,12.0,82,0.00,,---,0.00,236.00,VWS V14.01,2013-02-03 18:42:00,
2013-02-03 12:47:00,6.7,2.4,29.98,WSW,239,8.0,12.0,82,0.00,,---,0.00,193.00,VWS V14.01,2013-02-03 18:47:00,
2013-02-03 12:52:00,6.6,2.0,29.98,WSW,250,8.0,13.0,81,0.00,,---,0.00,246.00,VWS V14.01,2013-02-03 18:52:00,
2013-02-03 12:57:00,6.5,1.9,29.98,WNW,289,2.0,13.0,81,0.00,,---,0.00,229.00,VWS V14.01,2013-02-03 18:57:00,
2013-02-03 13:02:00,6.3,1.7,29.98,WNW,292,6.0,7.0,81,0.00,,---,0.00,241.00,VWS V14.01,2013-02-03 19:02:00,
2013-02-03 13:07:00,6.2,1.6,29.98,WNW,294,1.0,11.0,81,0.00,,---,0.00,214.00,VWS V14.01,2013-02-03 19:07:00,
2013-02-03 13:12:00,6.1,1.5,29.98,WSW,257,10.0,11.0,81,0.00,,---,0.00,207.00,VWS V14.01,2013-02-03 19:12:00,
2013-02-03 13:17:00,6.0,1.4,29.97,West,260,7.0,13.0,81,0.00,,---,0.00,225.00,VWS V14.01,2013-02-03 19:17:00,
2013-02-03 13:22:00,5.9,1.3,29.97,WSW,250,11.0,13.0,81,0.00,,---,0.00,262.00,VWS V14.01,2013-02-03 19:22:00,
2013-02-03 13:27:00,5.9,1.3,29.97,WNW,295,5.0,16.0,81,0.00,,---,0.00,255.00,VWS V14.01,2013-02-03 19:27:00,
2013-02-03 13:32:00,6.0,1.4,29.97,WNW,288,4.0,4.0,81,0.00,,---,0.00,269.00,VWS V14.01,2013-02-03 19:32:00,
2013-02-03 13:37:00,6.0,1.2,29.97,NW,306,7.0,8.0,80,0.00,,---,0.00,165.00,VWS V14.01,2013-02-03 19:37:00,
2013-02-03 13:42:00,5.9,1.1,29.97,WSW,248,8.0,11.0,80,0.00,,---,0.00,200.00,VWS V14.01,2013-02-03 19:42:00,
2013-02-03 13:47:00,5.8,0.7,29.97,WNW,297,5.0,11.0,79,0.00,,---,0.00,302.00,VWS V14.01,2013-02-03 19:47:00,
2013-02-03 13:52:00,5.6,0.5,29.97,WNW,292,3.0,11.0,79,0.00,,---,0.00,313.00,VWS V14.01,2013-02-03 19:52:00,
2013-02-03 13:57:00,6.1,1.5,29.97,WSW,247,6.0,11.0,81,0.00,,---,0.00,279.00,VWS V14.01,2013-02-03 19:57:00,
2013-02-03 14:02:00,6.5,1.9,29.96,WNW,297,5.0,8.0,81,0.00,,---,0.00,229.00,VWS V14.01,2013-02-03 20:02:00,
2013-02-03 14:07:00,6.6,1.8,29.96,NW,307,6.0,9.0,80,0.00,,---,0.00,171.00,VWS V14.01,2013-02-03 20:07:00,
2013-02-03 14:12:00,6.5,1.1,29.96,WNW,302,3.0,10.0,78,0.00,,---,0.00,127.00,VWS V14.01,2013-02-03 20:12:00,
2013-02-03 14:17:00,6.2,0.8,29.97,WSW,258,5.0,10.0,78,0.00,,---,0.00,104.00,VWS V14.01,2013-02-03 20:17:00,
2013-02-03 14:22:00,6.0,0.6,29.97,WNW,292,3.0,10.0,78,0.00,,---,0.00,149.00,VWS V14.01,2013-02-03 20:22:00,
2013-02-03 14:27:00,6.1,1.0,29.97,West,278,3.0,10.0,79,0.00,,---,0.00,197.00,VWS V14.01,2013-02-03 20:27:00,
2013-02-03 14:32:00,6.3,1.5,29.97,NW,318,1.0,3.0,80,0.00,,---,0.00,199.00,VWS V14.01,2013-02-03 20:32:00,
2013-02-03 14:37:00,6.5,1.7,29.97,WNW,290,5.0,11.0,80,0.00,,---,0.00,151.00,VWS V14.01,2013-02-03 20:37:00,
2013-02-03 14:42:00,6.4,1.3,29.97,WNW,298,4.0,13.0,79,0.00,,---,0.00,135.00,VWS V14.01,2013-02-03 20:42:00,
2013-02-03 14:47:00,6.4,1.0,29.98,NW,314,5.0,13.0,78,0.00,,---,0.00,114.00,VWS V14.01,2013-02-03 20:47:00,
2013-02-03 14:52:00,6.2,0.8,29.98,NW,315,3.0,13.0,78,0.00,,---,0.00,128.00,VWS V14.01,2013-02-03 20:52:00,
2013-02-03 14:57:00,6.2,1.1,29.98,WNW,294,6.0,13.0,79,0.00,,---,0.00,114.00,VWS V14.01,2013-02-03 20:57:00,
2013-02-03 15:02:00,6.2,1.1,29.98,WSW,257,3.0,4.0,79,0.00,,---,0.00,109.00,VWS V14.01,2013-02-03 21:02:00,
2013-02-03 15:07:00,6.2,0.8,29.98,WNW,292,7.0,9.0,78,0.00,,---,0.00,116.00,VWS V14.01,2013-02-03 21:07:00,
2013-02-03 15:12:00,6.0,0.6,29.98,WSW,257,5.0,10.0,78,0.00,,---,0.00,111.00,VWS V14.01,2013-02-03 21:12:00,
2013-02-03 15:17:00,5.9,0.5,29.98,WNW,294,7.0,10.0,78,0.00,,---,0.00,109.00,VWS V14.01,2013-02-03 21:17:00,
2013-02-03 15:22:00,5.9,0.5,29.98,West,260,2.0,12.0,78,0.00,,---,0.00,121.00,VWS V14.01,2013-02-03 21:22:00,
2013-02-03 15:27:00,5.9,0.8,29.98,NW,313,4.0,12.0,79,0.00,,---,0.00,120.00,VWS V14.01,2013-02-03 21:27:00,
2013-02-03 15:32:00,5.8,0.7,29.98,WNW,289,4.0,6.0,79,0.00,,---,0.00,91.00,VWS V14.01,2013-02-03 21:32:00,
2013-02-03 15:37:00,5.9,0.8,29.98,WNW,287,2.0,9.0,79,0.00,,---,0.00,102.00,VWS V14.01,2013-02-03 21:37:00,
2013-02-03 15:42:00,6.0,0.9,29.98,WSW,255,2.0,9.0,79,0.00,,---,0.00,144.00,VWS V14.01,2013-02-03 21:42:00,
2013-02-03 15:47:00,6.2,1.1,29.98,WSW,250,11.0,12.0,79,0.00,,---,0.00,142.00,VWS V14.01,2013-02-03 21:47:00,
2013-02-03 15:52:00,6.3,1.2,29.98,West,281,1.0,12.0,79,0.00,,---,0.00,107.00,VWS V14.01,2013-02-03 21:52:00,
2013-02-03 15:57:00,6.4,1.0,29.98,WNW,285,2.0,12.0,78,0.00,,---,0.00,102.00,VWS V14.01,2013-02-03 21:57:00,
2013-02-03 16:02:00,6.4,1.0,29.98,WNW,298,8.0,8.0,78,0.00,,---,0.00,86.00,VWS V14.01,2013-02-03 22:02:00,
2013-02-03 16:07:00,6.2,0.8,29.98,WNW,292,3.0,8.0,78,0.00,,---,0.00,79.00,VWS V14.01,2013-02-03 22:07:00,
2013-02-03 16:12:00,6.1,0.7,29.98,NW,312,4.0,11.0,78,0.00,,---,0.00,79.00,VWS V14.01,2013-02-03 22:12:00,
2013-02-03 16:17:00,6.1,0.7,29.98,West,267,2.0,11.0,78,0.00,,---,0.00,74.00,VWS V14.01,2013-02-03 22:17:00,
2013-02-03 16:22:00,6.0,0.6,29.98,WNW,286,0.0,11.0,78,0.00,,---,0.00,69.00,VWS V14.01,2013-02-03 22:22:00,
2013-02-03 16:27:00,6.0,0.6,29.98,WSW,252,1.0,11.0,78,0.00,,---,0.00,56.00,VWS V14.01,2013-02-03 22:27:00,
2013-02-03 16:32:00,5.9,0.5,29.98,West,275,2.0,3.0,78,0.00,,---,0.00,47.00,VWS V14.01,2013-02-03 22:32:00,
2013-02-03 16:37:00,5.9,0.8,29.98,West,261,3.0,5.0,79,0.00,,---,0.00,39.00,VWS V14.01,2013-02-03 22:37:00,
2013-02-03 16:42:00,5.7,0.3,29.98,West,269,2.0,5.0,78,0.00,,---,0.00,33.00,VWS V14.01,2013-02-03 22:42:00,
2013-02-03 16:47:00,5.6,0.2,29.98,WSW,248,3.0,6.0,78,0.00,,---,0.00,28.00,VWS V14.01,2013-02-03 22:47:00,
2013-02-03 16:52:00,5.5,0.4,29.98,WSW,248,2.0,6.0,79,0.00,,---,0.00,30.00,VWS V14.01,2013-02-03 22:52:00,
2013-02-03 16:57:00,5.4,0.3,29.98,WSW,248,0.0,6.0,79,0.00,,---,0.00,19.00,VWS V14.01,2013-02-03 22:57:00,
2013-02-03 17:02:00,5.3,0.2,29.98,West,270,2.0,3.0,79,0.00,,---,0.00,12.00,VWS V14.01,2013-02-03 23:02:00,
2013-02-03 17:07:00,5.2,0.1,29.98,West,269,3.0,3.0,79,0.00,,---,0.00,11.00,VWS V14.01,2013-02-03 23:07:00,
2013-02-03 17:12:00,5.0,-0.1,29.98,West,259,1.0,5.0,79,0.00,,---,0.00,0.00,VWS V14.01,2013-02-03 23:12:00,
2013-02-03 17:17:00,4.9,-0.2,29.99,WSW,257,3.0,7.0,79,0.00,,---,0.00,0.00,VWS V14.01,2013-02-03 23:17:00,
2013-02-03 17:22:00,4.7,-0.1,29.99,West,260,1.0,7.0,80,0.00,,---,0.00,0.00,VWS V14.01,2013-02-03 23:22:00,
2013-02-03 17:27:00,4.6,-0.2,29.99,West,260,1.0,7.0,80,0.00,,---,0.00,0.00,VWS V14.01,2013-02-03 23:27:00,
2013-02-03 17:32:00,4.5,-0.3,29.99,West,260,0.0,2.0,80,0.00,,---,0.00,0.00,VWS V14.01,2013-02-03 23:32:00,
2013-02-03 17:37:00,4.4,-0.4,29.99,West,260,1.0,3.0,80,0.00,,---,0.00,0.00,VWS V14.01,2013-02-03 23:37:00,
2013-02-03 17:42:00,4.3,-0.5,29.99,West,259,0.0,4.0,80,0.00,,---,0.00,0.00,VWS V14.01,2013-02-03 23:42:00,
2013-02-03 17:47:00,4.2,-0.3,29.99,West,259,1.0,4.0,81,0.00,,---,0.00,0.00,VWS V14.01,2013-02-03 23:47:00,
2013-02-03 17:52:00,4.2,-0.3,29.99,WSW,238,5.0,5.0,81,0.00,,---,0.00,0.00,VWS V14.01,2013-02-03 23:52:00,
2013-02-03 17:57:00,4.1,-0.4,29.99,SW,236,1.0,5.0,81,0.00,,---,0.00,0.00,VWS V14.01,2013-02-03 23:57:00,
2013-02-03 18:02:00,4.1,-0.4,29.99,SW,236,1.0,3.0,81,0.00,,---,0.00,0.00,VWS V14.01,2013-02-04 00:02:00,
2013-02-03 18:07:00,4.0,-0.5,29.99,WSW,239,3.0,5.0,81,0.00,,---,0.00,0.00,VWS V14.01,2013-02-04 00:07:00,
2013-02-03 18:12:00,4.0,-0.5,29.99,West,263,1.0,5.0,81,0.00,,---,0.00,0.00,VWS V14.01,2013-02-04 00:12:00,
2013-02-03 18:17:00,3.9,-0.6,30.00,SW,234,2.0,5.0,81,0.00,,---,0.00,0.00,VWS V14.01,2013-02-04 00:17:00,
2013-02-03 18:22:00,3.9,-0.6,30.00,WSW,243,0.0,5.0,81,0.00,,---,0.00,0.00,VWS V14.01,2013-02-04 00:22:00,
2013-02-03 18:27:00,3.8,-0.7,30.00,WSW,239,3.0,5.0,81,0.00,,---,0.00,0.00,VWS V14.01,2013-02-04 00:27:00,
2013-02-03 18:32:00,3.7,-0.8,29.99,WSW,238,0.0,1.0,81,0.00,,---,0.00,0.00,VWS V14.01,2013-02-04 00:32:00,
2013-02-03 18:37:00,3.7,-0.8,29.99,WSW,238,0.0,4.0,81,0.00,,---,0.00,0.00,VWS V14.01,2013-02-04 00:37:00,
2013-02-03 18:42:00,3.6,-0.9,29.99,WSW,238,2.0,4.0,81,0.00,,---,0.00,0.00,VWS V14.01,2013-02-04 00:42:00,
2013-02-03 18:47:00,3.5,-1.0,30.00,WSW,238,2.0,4.0,81,0.00,,---,0.00,0.00,VWS V14.01,2013-02-04 00:47:00,
2013-02-03 18:52:00,3.5,-1.0,30.00,WSW,238,0.0,4.0,81,0.00,,---,0.00,0.00,VWS V14.01,2013-02-04 00:52:00,
2013-02-03 18:57:00,3.4,-1.1,30.00,WSW,238,2.0,4.0,81,0.00,,---,0.00,0.00,VWS V14.01,2013-02-04 00:57:00,
2013-02-03 19:02:00,3.3,-1.2,30.00,WSW,238,0.0,0.0,81,0.00,,---,0.00,0.00,VWS V14.01,2013-02-04 01:02:00,
2013-02-03 19:07:00,3.2,-1.3,30.00,WSW,238,0.0,0.0,81,0.00,,---,0.00,0.00,VWS V14.01,2013-02-04 01:07:00,
2013-02-03 19:12:00,3.1,-1.4,30.00,WSW,238,0.0,0.0,81,0.00,,---,0.00,0.00,VWS V14.01,2013-02-04 01:12:00,
2013-02-03 19:17:00,2.9,-1.6,30.00,WSW,238,0.0,2.0,81,0.00,,---,0.00,0.00,VWS V14.01,2013-02-04 01:17:00,
2013-02-03 19:22:00,2.8,-1.7,30.00,WSW,238,1.0,2.0,81,0.00,,---,0.00,0.00,VWS V14.01,2013-02-04 01:22:00,
2013-02-03 19:27:00,2.8,-1.7,30.00,WSW,238,3.0,3.0,81,0.00,,---,0.00,0.00,VWS V14.01,2013-02-04 01:27:00,
2013-02-03 19:32:00,2.8,-1.7,30.00,SW,236,1.0,2.0,81,0.00,,---,0.00,0.00,VWS V14.01,2013-02-04 01:32:00,
2013-02-03 19:37:00,2.8,-1.7,30.00,SW,234,0.0,3.0,81,0.00,,---,0.00,0.00,VWS V14.01,2013-02-04 01:37:00,
2013-02-03 19:42:00,2.8,-1.7,30.00,WSW,244,3.0,4.0,81,0.00,,---,0.00,0.00,VWS V14.01,2013-02-04 01:42:00,
2013-02-03 19:47:00,2.8,-1.4,30.00,WSW,244,1.0,4.0,82,0.00,,---,0.00,0.00,VWS V14.01,2013-02-04 01:47:00,
2013-02-03 19:52:00,2.8,-1.7,30.00,WSW,243,0.0,4.0,81,0.00,,---,0.00,0.00,VWS V14.01,2013-02-04 01:52:00,
2013-02-03 19:57:00,2.7,-1.8,30.00,WSW,243,2.0,4.0,81,0.00,,---,0.00,0.00,VWS V14.01,2013-02-04 01:57:00,
2013-02-03 20:02:00,2.6,-1.9,30.00,SW,217,3.0,4.0,81,0.00,,---,0.00,0.00,VWS V14.01,2013-02-04 02:02:00,
2013-02-03 20:07:00,2.6,-1.9,30.00,SW,227,2.0,4.0,81,0.00,,---,0.00,0.00,VWS V14.01,2013-02-04 02:07:00,
2013-02-03 20:12:00,2.5,-2.0,30.00,WSW,252,3.0,4.0,81,0.00,,---,0.00,0.00,VWS V14.01,2013-02-04 02:12:00,
2013-02-03 20:17:00,2.5,-2.0,30.00,WSW,251,2.0,4.0,81,0.00,,---,0.00,0.00,VWS V14.01,2013-02-04 02:17:00,
2013-02-03 20:22:00,2.6,-1.9,30.00,WSW,240,1.0,4.0,81,0.00,,---,0.00,0.00,VWS V14.01,2013-02-04 02:22:00,
2013-02-03 20:27:00,2.6,-1.9,30.00,WSW,240,0.0,4.0,81,0.00,,---,0.00,0.00,VWS V14.01,2013-02-04 02:27:00,
2013-02-03 20:32:00,2.6,-1.9,30.00,WSW,240,0.0,0.0,81,0.00,,---,0.00,0.00,VWS V14.01,2013-02-04 02:32:00,
2013-02-03 20:37:00,2.6,-1.6,30.00,WSW,240,2.0,3.0,82,0.00,,---,0.00,0.00,VWS V14.01,2013-02-04 02:37:00,
2013-02-03 20:42:00,2.6,-1.6,30.00,WSW,240,1.0,4.0,82,0.00,,---,0.00,0.00,VWS V14.01,2013-02-04 02:42:00,
2013-02-03 20:47:00,2.7,-1.5,30.00,WSW,239,1.0,4.0,82,0.00,,---,0.00,0.00,VWS V14.01,2013-02-04 02:47:00,
2013-02-03 20:52:00,2.7,-1.5,30.00,WSW,242,3.0,4.0,82,0.00,,---,0.00,0.00,VWS V14.01,2013-02-04 02:52:00,
2013-02-03 20:57:00,2.8,-1.4,30.00,WSW,238,4.0,6.0,82,0.00,,---,0.00,0.00,VWS V14.01,2013-02-04 02:57:00,
2013-02-03 21:02:00,2.8,1.0,30.00,WSW,257,0.0,0.0,92,0.00,,---,0.00,0.00,VWS V14.01,2013-02-04 03:02:00,
2013-02-03 21:07:00,2.8,-1.4,30.00,SW,225,2.0,4.0,82,0.00,,---,0.00,0.00,VWS V14.01,2013-02-04 03:07:00,
2013-02-03 21:12:00,2.8,-1.4,30.00,SW,225,1.0,4.0,82,0.00,,---,0.00,0.00,VWS V14.01,2013-02-04 03:12:00,
2013-02-03 21:17:00,2.8,-1.7,30.00,WSW,238,4.0,7.0,81,0.00,,---,0.00,0.00,VWS V14.01,2013-02-04 03:17:00,
2013-02-03 21:22:00,2.8,-1.4,30.00,SW,234,1.0,7.0,82,0.00,,---,0.00,0.00,VWS V14.01,2013-02-04 03:22:00,
2013-02-03 21:27:00,2.8,-1.4,30.00,WSW,246,2.0,7.0,82,0.00,,---,0.00,0.00,VWS V14.01,2013-02-04 03:27:00,
2013-02-03 21:32:00,2.8,-1.4,30.00,WSW,255,3.0,3.0,82,0.00,,---,0.00,0.00,VWS V14.01,2013-02-04 03:32:00,
2013-02-03 21:37:00,2.8,-1.4,30.00,WSW,256,6.0,6.0,82,0.00,,---,0.00,0.00,VWS V14.01,2013-02-04 03:37:00,
2013-02-03 21:42:00,2.9,-1.3,30.00,West,259,5.0,6.0,82,0.00,,---,0.00,0.00,VWS V14.01,2013-02-04 03:42:00,
2013-02-03 21:47:00,2.9,-1.6,30.00,WSW,252,1.0,6.0,81,0.00,,---,0.00,0.00,VWS V14.01,2013-02-04 03:47:00,
2013-02-03 21:52:00,2.9,-1.6,30.00,SW,226,0.0,6.0,81,0.00,,---,0.00,0.00,VWS V14.01,2013-02-04 03:52:00,
2013-02-03 21:57:00,2.9,-1.3,30.00,West,267,4.0,6.0,82,0.00,,---,0.00,0.00,VWS V14.01,2013-02-04 03:57:00,
2013-02-03 22:02:00,2.9,-1.3,30.00,WSW,254,6.0,6.0,82,0.00,,---,0.00,0.00,VWS V14.01,2013-02-04 04:02:00,
2013-02-03 22:07:00,2.9,-1.3,30.00,SW,221,3.0,8.0,82,0.00,,---,0.00,0.00,VWS V14.01,2013-02-04 04:07:00,
2013-02-03 22:12:00,3.0,-1.5,30.00,SW,229,2.0,8.0,81,0.00,,---,0.00,0.00,VWS V14.01,2013-02-04 04:12:00,
2013-02-03 22:17:00,3.0,-1.2,30.00,WSW,242,2.0,8.0,82,0.00,,---,0.00,0.00,VWS V14.01,2013-02-04 04:17:00,
2013-02-03 22:22:00,3.0,-1.2,30.00,West,261,3.0,8.0,82,0.00,,---,0.00,0.00,VWS V14.01,2013-02-04 04:22:00,
2013-02-03 22:27:00,3.1,-1.1,30.00,SW,230,2.0,8.0,82,0.00,,---,0.00,0.00,VWS V14.01,2013-02-04 04:27:00,
2013-02-03 22:32:00,3.1,-1.1,30.00,WSW,246,5.0,5.0,82,0.00,,---,0.00,0.00,VWS V14.01,2013-02-04 04:32:00,
2013-02-03 22:37:00,3.1,-1.1,30.00,West,269,1.0,5.0,82,0.00,,---,0.00,0.00,VWS V14.01,2013-02-04 04:37:00,
2013-02-03 22:42:00,3.1,-1.1,30.00,WSW,245,1.0,5.0,82,0.00,,---,0.00,0.00,VWS V14.01,2013-02-04 04:42:00,
2013-02-03 22:47:00,3.1,-1.1,30.00,WSW,244,1.0,5.0,82,0.00,,---,0.00,0.00,VWS V14.01,2013-02-04 04:47:00,
2013-02-03 22:52:00,3.1,-1.1,30.00,WSW,245,3.0,5.0,82,0.00,,---,0.00,0.00,VWS V14.01,2013-02-04 04:52:00,
2013-02-03 22:57:00,3.1,-1.1,30.00,WSW,253,4.0,6.0,82,0.00,,---,0.00,0.00,VWS V14.01,2013-02-04 04:57:00,
2013-02-03 23:00:00,3.1,-1.1,30.00,West,259,4.0,6.0,82,0.00,,---,0.00,0.00,VWS V14.01,2013-02-04 05:00:00,
2013-02-03 23:02:00,3.2,-1.0,30.00,West,267,5.0,7.0,82,0.00,,---,0.00,0.00,VWS V14.01,2013-02-04 05:02:00,
2013-02-03 23:03:00,3.1,-1.1,30.00,West,267,2.0,7.0,82,0.00,,---,0.00,0.00,VWS V14.01,2013-02-04 05:03:00,
2013-02-03 23:08:00,3.2,-1.0,30.00,West,263,3.0,7.0,82,0.00,,---,0.00,0.00,VWS V14.01,2013-02-04 05:08:00,
2013-02-03 23:13:00,3.3,-0.7,30.00,SW,235,5.0,7.0,83,0.00,,---,0.00,0.00,VWS V14.01,2013-02-04 05:13:00,
2013-02-03 23:18:00,3.5,-0.5,30.00,West,271,2.0,7.0,83,0.00,,---,0.00,0.00,VWS V14.01,2013-02-04 05:18:00,
2013-02-03 23:23:00,3.6,-0.4,30.00,West,259,3.0,7.0,83,0.00,,---,0.00,0.00,VWS V14.01,2013-02-04 05:23:00,
2013-02-03 23:28:00,3.7,0.0,30.00,West,260,5.0,9.0,84,0.00,,---,0.00,0.00,VWS V14.01,2013-02-04 05:28:00,
2013-02-03 23:33:00,3.7,0.0,30.00,WSW,249,5.0,7.0,84,0.00,,---,0.00,0.00,VWS V14.01,2013-02-04 05:33:00,
2013-02-03 23:38:00,3.8,0.1,30.00,West,267,4.0,9.0,84,0.00,,---,0.00,0.00,VWS V14.01,2013-02-04 05:38:00,
2013-02-03 23:43:00,3.8,0.1,30.00,WSW,246,5.0,9.0,84,0.00,,---,0.00,0.00,VWS V14.01,2013-02-04 05:43:00,
2013-02-03 23:48:00,3.8,0.1,30.01,SW,221,3.0,9.0,84,0.00,,---,0.00,0.00,VWS V14.01,2013-02-04 05:48:00,
2013-02-03 23:53:00,3.8,0.1,30.01,WSW,253,3.0,9.0,84,0.00,,---,0.00,0.00,VWS V14.01,2013-02-04 05:53:00,
2013-02-03 23:58:00,3.8,0.1,30.01,WSW,248,3.0,9.0,84,0.00,,---,0.00,0.00,VWS V14.01,2013-02-04 05:58:00,